Stündliche Wetter Abakan

Heute, 8 März, Montag

Zeit Temperatur Niederschläge Wind Luftdruck Luftfeuchtigkeit
00:00 -4°C° 0 mm 1 m/S 743 mmHg 82%
01:00 -6°C° 0 mm 1 m/S 743 mmHg 83%
02:00 -7°C° 0 mm 1 m/S 743 mmHg 85%
03:00 -8°C° 0 mm 1 m/S 743 mmHg 86%
04:00 -9°C° 0 mm 1 m/S 743 mmHg 87%
05:00 -9°C° 0 mm 1 m/S 743 mmHg 87%
06:00 -9°C° 0 mm 1 m/S 743 mmHg 90%
07:00 -8°C° 0 mm 1 m/S 742 mmHg 90%
08:00 -7°C° 0 mm 1 m/S 742 mmHg 90%
09:00 -4°C° 0 mm 1 m/S 741 mmHg 90%
10:00 -3°C° 0 mm 1 m/S 740 mmHg 92%
11:00 -2°C° 0 mm 1 m/S 739 mmHg 93%
12:00 -1°C° 0 mm 1 m/S 738 mmHg 94%
13:00 -1°C° 0 mm 1 m/S 738 mmHg 94%
14:00 0°C° 0 mm 1 m/S 737 mmHg 95%
15:00 0°C° 0 mm 1 m/S 736 mmHg 95%
16:00 -1°C° 0 mm 1 m/S 736 mmHg 95%
17:00 -2°C° 0 mm 1 m/S 736 mmHg 95%
18:00 -2°C° 0 mm 1 m/S 736 mmHg 95%
19:00 -3°C° 0 mm 1 m/S 736 mmHg 95%
20:00 -3°C° 0 mm 1 m/S 736 mmHg 95%
21:00 -6°C° 0 mm 2 m/S 736 mmHg 94%
22:00 -5°C° 0 mm 2 m/S 736 mmHg 93%
23:00 -4°C° 0 mm 2 m/S 736 mmHg 92%

Morgen, 9 März, Dienstag

Zeit Temperatur Niederschläge Wind Luftdruck Luftfeuchtigkeit
00:00 -3°C° 0 mm 2 m/S 737 mmHg 91%
01:00 -2°C° 0 mm 3 m/S 737 mmHg 90%
02:00 -2°C° 0 mm 4 m/S 737 mmHg 88%
03:00 -2°C° 0 mm 5 m/S 737 mmHg 86%
04:00 -2°C° 0 mm 5 m/S 738 mmHg 85%
05:00 -2°C° 0 mm 5 m/S 739 mmHg 85%
06:00 -4°C° 0 mm 5 m/S 740 mmHg 84%
07:00 -2°C° 0 mm 5 m/S 741 mmHg 83%
08:00 -2°C° 0 mm 5 m/S 741 mmHg 82%
09:00 -2°C° 0 mm 5 m/S 742 mmHg 82%
10:00 -2°C° 0 mm 5 m/S 743 mmHg 75%
11:00 -2°C° 0 mm 5 m/S 743 mmHg 68%
12:00 -3°C° 0 mm 6 m/S 744 mmHg 61%
13:00 -2°C° 0 mm 5 m/S 744 mmHg 64%
14:00 -2°C° 0 mm 4 m/S 745 mmHg 67%
15:00 -1°C° 0 mm 3 m/S 745 mmHg 69%
16:00 -3°C° 0 mm 2 m/S 745 mmHg 71%
17:00 -4°C° 0 mm 2 m/S 745 mmHg 73%
18:00 -4°C° 0 mm 1 m/S 746 mmHg 75%
19:00 -6°C° 0 mm 1 m/S 746 mmHg 76%
20:00 -7°C° 0 mm 1 m/S 746 mmHg 78%
21:00 -8°C° 0 mm 1 m/S 746 mmHg 79%
22:00 -8°C° 0 mm 1 m/S 745 mmHg 80%
23:00 -8°C° 0 mm 1 m/S 745 mmHg 81%

übermorgen, 10 März, Mittwoch

Zeit Temperatur Niederschläge Wind Luftdruck Luftfeuchtigkeit
00:00 -8°C° 0 mm 1 m/S 744 mmHg 83%
01:00 -8°C° 0 mm 1 m/S 744 mmHg 84%
02:00 -8°C° 0 mm 1 m/S 744 mmHg 85%
03:00 -8°C° 0 mm 0 m/S 743 mmHg 85%
04:00 -8°C° 0 mm 1 m/S 743 mmHg 86%
05:00 -8°C° 0 mm 1 m/S 743 mmHg 86%
06:00 -8°C° 0 mm 1 m/S 743 mmHg 87%
07:00 -7°C° 0 mm 1 m/S 742 mmHg 86%
08:00 -6°C° 0 mm 1 m/S 742 mmHg 86%
09:00 -4°C° 0 mm 1 m/S 741 mmHg 86%
10:00 -2°C° 0 mm 1 m/S 741 mmHg 86%
11:00 -3°C° 0 mm 2 m/S 740 mmHg 86%
12:00 -2°C° 0 mm 2 m/S 740 mmHg 86%
13:00 0°C° 0 mm 1 m/S 740 mmHg 87%
14:00 +1°C° 0 mm 1 m/S 739 mmHg 87%
15:00 +1°C° 0 mm 1 m/S 739 mmHg 88%
16:00 0°C° 0 mm 1 m/S 739 mmHg 89%
17:00 -1°C° 0 mm 1 m/S 739 mmHg 90%
18:00 -3°C° 0 mm 1 m/S 739 mmHg 91%
19:00 -3°C° 0 mm 1 m/S 739 mmHg 93%
20:00 -3°C° 0 mm 1 m/S 739 mmHg 94%
21:00 -4°C° 0 mm 1 m/S 738 mmHg 95%
22:00 -3°C° 0 mm 1 m/S 738 mmHg 95%
23:00 -4°C° 0 mm 0 m/S 737 mmHg 96%

11 März, Donnerstag

Zeit Temperatur Niederschläge Wind Luftdruck Luftfeuchtigkeit
00:00 -3°C° 0 mm 0 m/S 737 mmHg 96%
01:00 -2°C° 0 mm 1 m/S 737 mmHg 96%
02:00 -2°C° 0 mm 1 m/S 736 mmHg 96%
03:00 -2°C° 0 mm 1 m/S 736 mmHg 95%
04:00 -5°C° 0 mm 2 m/S 735 mmHg 95%
05:00 -5°C° 0 mm 2 m/S 735 mmHg 94%
06:00 -6°C° 0 mm 2 m/S 735 mmHg 93%
07:00 -5°C° 0 mm 2 m/S 735 mmHg 91%
08:00 -5°C° 0 mm 2 m/S 735 mmHg 88%
09:00 -4°C° 0 mm 2 m/S 735 mmHg 85%
10:00 -3°C° 0 mm 2 m/S 735 mmHg 85%
11:00 -2°C° 0 mm 2 m/S 735 mmHg 84%
12:00 -1°C° 0 mm 2 m/S 735 mmHg 84%
13:00 +1°C° 0 mm 2 m/S 735 mmHg 87%
14:00 +1°C° 0 mm 2 m/S 735 mmHg 90%
15:00 +1°C° 0 mm 2 m/S 735 mmHg 92%
16:00 +2°C° 0 mm 1 m/S 735 mmHg 91%
17:00 +2°C° 0 mm 1 m/S 736 mmHg 90%
18:00 +1°C° 0 mm 1 m/S 736 mmHg 89%
19:00 +1°C° 1.3 mm 1 m/S 737 mmHg 91%
20:00 -1°C° 1.3 mm 2 m/S 738 mmHg 93%
21:00 -1°C° 1.3 mm 2 m/S 740 mmHg 96%
22:00 -2°C° 0.6 mm 4 m/S 740 mmHg 90%
23:00 -2°C° 0.6 mm 5 m/S 741 mmHg 85%

12 März, Freitag

Zeit Temperatur Niederschläge Wind Luftdruck Luftfeuchtigkeit
00:00 -4°C° 0.6 mm 6 m/S 742 mmHg 80%
01:00 -5°C° 0 mm 6 m/S 742 mmHg 79%
02:00 -5°C° 0 mm 6 m/S 743 mmHg 78%
03:00 -6°C° 0 mm 6 m/S 743 mmHg 78%
04:00 -7°C° 0 mm 5 m/S 743 mmHg 77%
05:00 -8°C° 0 mm 4 m/S 743 mmHg 77%
06:00 -8°C° 0 mm 3 m/S 742 mmHg 77%
07:00 -6°C° 0 mm 2 m/S 742 mmHg 78%
08:00 -5°C° 0 mm 2 m/S 741 mmHg 79%
09:00 -4°C° 0 mm 2 m/S 740 mmHg 79%
10:00 -3°C° 0 mm 2 m/S 740 mmHg 83%
11:00 -2°C° 0 mm 2 m/S 739 mmHg 86%
12:00 -1°C° 0 mm 2 m/S 738 mmHg 89%
13:00 +1°C° 0 mm 1 m/S 738 mmHg 88%
14:00 +2°C° 0 mm 1 m/S 737 mmHg 87%
15:00 +2°C° 0 mm 1 m/S 737 mmHg 87%
16:00 +1°C° 0 mm 1 m/S 737 mmHg 85%
17:00 +1°C° 0 mm 1 m/S 737 mmHg 84%
18:00 0°C° 0 mm 1 m/S 737 mmHg 82%
19:00 -1°C° 0 mm 1 m/S 738 mmHg 83%
20:00 -2°C° 0 mm 1 m/S 738 mmHg 83%
21:00 -3°C° 0 mm 1 m/S 739 mmHg 84%
22:00 -3°C° 0 mm 1 m/S 739 mmHg 83%
23:00 -3°C° 0 mm 1 m/S 739 mmHg 81%

13 März, Samstag

Zeit Temperatur Niederschläge Wind Luftdruck Luftfeuchtigkeit
00:00 -3°C° 0 mm 1 m/S 738 mmHg 80%
01:00 -4°C° 0 mm 1 m/S 738 mmHg 83%
02:00 -4°C° 0 mm 1 m/S 738 mmHg 86%
03:00 -4°C° 0 mm 1 m/S 737 mmHg 90%
04:00 -4°C° 0.5 mm 1 m/S 737 mmHg 92%
05:00 -4°C° 0.5 mm 1 m/S 737 mmHg 94%
06:00 -4°C° 0.5 mm 1 m/S 736 mmHg 96%
07:00 -4°C° 0.6 mm 1 m/S 736 mmHg 95%
08:00 -4°C° 0.6 mm 1 m/S 736 mmHg 95%
09:00 -6°C° 0.6 mm 2 m/S 735 mmHg 94%
10:00 -6°C° 0.5 mm 3 m/S 736 mmHg 88%
11:00 -7°C° 0.5 mm 5 m/S 737 mmHg 82%
12:00 -8°C° 0.5 mm 6 m/S 737 mmHg 75%
13:00 -9°C° 0.1 mm 7 m/S 739 mmHg 71%
14:00 -11°C° 0.1 mm 7 m/S 741 mmHg 68%
15:00 -13°C° 0.1 mm 8 m/S 742 mmHg 64%
16:00 -14°C° 0 mm 6 m/S 743 mmHg 65%
17:00 -15°C° 0 mm 4 m/S 745 mmHg 67%
18:00 -16°C° 0 mm 3 m/S 746 mmHg 68%
19:00 -16°C° 0 mm 2 m/S 747 mmHg 71%
20:00 -15°C° 0 mm 1 m/S 748 mmHg 73%
21:00 -16°C° 0 mm 1 m/S 749 mmHg 75%
22:00 -17°C° 0 mm 1 m/S 749 mmHg 77%
23:00 -18°C° 0 mm 1 m/S 750 mmHg 78%
Mehr zeigen

Wir brauchen deine Erlaubnis

Meteoprog und unser Service Anbieter werden persönliche Daten aufbewahren, so wie Cookies, Geräte Bezeichnung oder ähnliche Technologien von deinem Gerät und Prozess, so wie Persönliche Daten Inhalte und Werbungen, genauso wie social Media und den Verkehr zu analysieren.

  • Aufbewahrung und/oder Zugang zu deiner Geräte Informationen.

    Cookies, Geräte Bezeichnung oder andere Informationen, können aufbewahrt oder Zugang zu deinem Gerät erhalten, für den Grund, der oben angegeben wird.

  • Personalisierte Werbung und Inhalte, Messungen, Einblick in das Publikum und Produkt Entwicklung.

    Werbungen und Inhalte können personalisiert werden, basierend auf ein Profil. Mehr Daten können besser personalisierte Werbungen und Inhalte hinzufügen. Werbung und Inhalte können gezeigt und gemessen werden. Einblicke über das Publikum, welche die Werbung gesehen haben und den Inhalt, können abgeleitet werden. So wie Daten können genutzt werden, um es zu verbessern oder die Benutzer Erfahrung zu verbessern das System und die Software.

Wenn du “Ich stimme zu” klickst, erlaubst du uns, die Cookies zu benutzen die Geräte Bezeichnung, den Web oder ähnliche Technologien zu benutzen. Deine Settings, können in deinem Gerät bei deinem Browser geändert werden.

Für den bestimmten Zweck, berechtigten Interessen beruhen darauf, mehr als auf den Inhalt. Du kannst mehr darüber in unseren Privaten und Cookie Politik lesen.